Location: Round Knob
(37.2473°N, 88.7376°W)
Time: 12:32:15
(UTC+00:00)

SL-4 R/B - Pass Details

Date: 29 October 2020
Orbit: 428 x 665 km, 51.6° (Epoch: 04 December)

Event Time Altitude Azimuth Distance (km) Brightness Sun altitude
Rises 23:53:00 0° 320° (NW) 2,447 5.8 -11.2°
Reaches altitude 10° 23:56:35 10° 358° (N) 1,620 4.3 -11.9°
Maximum altitude 23:57:39 11° 16° (NNE) 1,573 4.1 -12.1°
Drops below altitude 10° 23:58:45 10° 33° (NNE) 1,652 4.1 -12.3°
Enters shadow 23:58:51 10° 34° (NE) 1,666 4.1 -12.3°
